Regional Weather Roundup
Issued by NWS

Home | Current Version | Previous Version | Text Only | Print | Product List | Glossary On
Versions: 1 2 3 4 5 6 7 8 9 10 11 12 13 14 15 16 17 18 19 20 21 22 23 24 25 26 27 28 29 30 31 32 33 34 35 36 37 38 39 40 41 42 43 44 45 46 47 48 49 50
000
ASUS42 KKEY 290810
RWRKEY

FLORIDA REGIONAL WEATHER ROUNDUP FOR THE FLORIDA KEYS
NATIONAL WEATHER SERVICE KEY WEST FLORIDA
300 AM EST MON DEC 29 2014

...SOUTH FLORIDA AND THE KEYS...

CITY           SKY/WX    TMP DP  RH WIND       PRES   REMARKS
FORT MYERS     CLEAR     65  63  93 CALM      30.10F
SW REGIONAL AP CLEAR     64  62  93 NE3       30.11F
NAPLES         CLEAR     66  65  96 N3        30.10S
MIAMI          PTCLDY    71  68  90 CALM      30.11F
WEST KENDALL   CLEAR     69  67  93 NE3       30.11F
HOMESTEAD      CLEAR     69  67  96 NE3       30.11F
MARATHON       MOCLDY    76  73  91 SE5       30.09S
BOCA CHICA NAS PTCLDY    75  71  87 SE8       30.09F
KEY WEST INTL  MOCLDY    77  71  82 SE9       30.09F

...INTERNATIONAL WEATHER...

CITY           SKY/WX    TMP DP  RH WIND       PRES   REMARKS
NASSAU BAHAMAS NOT AVBL
CANCUN MEXICO  CLEAR     77  73  88 SE7       30.04F
COZUMEL MEXICO CLEAR     70  70 100 CALM      30.03

ADJACENT COASTAL WATERS...

STATION/POSITION TIME  SKY/WX   TEMP    WIND        PRES    WAVE
                                AIR SEA DIR/SP/G            HT/PER
                 (UTC)          (F)     (DEG/KT/KT) (MB)    (FT/S)
PULASKI SHOAL LI 0700            73     100/  9/  9 1018.5F
SAND KEY         0740            77     140/ 13/ 15 1018.7F
SOMBRERO KEY     0800            77     140/ 14/ 14 1019.7S
LONG KEY         0700            76 76  120/  8/  9 1019.9F
MOLASSES REEF    0800            77 78  130/ 10/ 11 1019.4F
FOWEY ROCKS      NOT AVBL
Buoy 42080       NOT AVBL

$$


USA.gov is the U.S. government's official web portal to all federal, state and local government web resources and services.